Fortuna, CA

8:57 PM PDT on October 23, 2019 (GMT -0700)
Rohnerville

Weather History for KFOT - September, 2019

Change the Weather History Date:

Wednesday, September 18, 2019

  Actual Average (WUND) Record (WUND)
Temperature  
Mean Temperature 63 °F -  
Max Temperature 69 °F - - (-1)
Min Temperature 57 °F - - (-1)
Degree Days  
Heating Degree Days 2    
Growing Degree Days 13 (Base 50)    
Moisture  
Dew Point 56 °F    
Average Humidity 87    
Maximum Humidity 100    
Minimum Humidity 60    
Precipitation  
Precipitation 0.02 in - - ()
Sea Level Pressure  
Sea Level Pressure 29.95 in    
Wind  
Wind Speed 6 mph ()    
Max Wind Speed 14 mph    
Max Gust Speed 20 mph    
Visibility 8.6 miles    
Events      
Averages and records for this station are not official NWS values.
T = Trace of Precipitation, MM = Missing Value Source: Averaged Metar Reports

Daily Weather History Graph

Daily Weather History Graph

Search for Another Location

Airport or City:

Astronomy

Sep. 18, 2019 Rise Set
Actual Time 7:00 AM PDT 7:20 PM PDT
Civil Twilight 6:32 AM PDT 7:47 PM PDT
Nautical Twilight 6:00 AM PDT 8:19 PM PDT
Astronomical Twilight 5:27 AM PDT 8:52 PM PDT
Moon 9:56 PM PDT (9/18) 11:09 AM PDT (9/18)
Length of Visible Light 13h 15m
Length of Day
12h 20m
Waning Gibbous, 82% of the Moon is Illuminated
Sep 18
Waning Gibbous
Sep 21
Last Quarter
Sep 28
New
Oct 5
First Quarter
Oct 13
Full

Hourly Weather History & Observations

Time (PDT) Temp. Dew Point Humidity Pressure Visibility Wind Dir Wind Speed Gust Speed Precip Events Conditions
12:15 AM 59.0 °F 57.2 °F 94% 29.93 in 10.0 mi SE 6.9 mph - N/A   Overcast
12:35 AM 57.2 °F 57.2 °F 100% 29.92 in 10.0 mi SE 5.8 mph - N/A   Overcast
12:55 AM 57.2 °F 57.2 °F 100% 29.92 in 10.0 mi SE 5.8 mph - N/A   Mostly Cloudy
1:15 AM 57.2 °F 57.2 °F 100% 29.92 in 10.0 mi SE 6.9 mph - N/A   Mostly Cloudy
1:35 AM 57.2 °F 57.2 °F 100% 29.92 in 10.0 mi ESE 6.9 mph - N/A   Mostly Cloudy
1:55 AM 57.2 °F 57.2 °F 100% 29.92 in 10.0 mi SE 6.9 mph - N/A   Overcast
2:15 AM 57.2 °F 57.2 °F 100% 29.92 in 10.0 mi SE 5.8 mph - N/A   Overcast
2:35 AM 57.2 °F 57.2 °F 100% 29.92 in 10.0 mi ESE 5.8 mph - N/A   Overcast
2:55 AM 57.2 °F 55.4 °F 94% 29.91 in 0.2 mi SE 6.9 mph - N/A   Overcast
3:15 AM 57.2 °F 57.2 °F 100% 29.91 in 0.2 mi SSE 4.6 mph - N/A   Overcast
3:35 AM 57.2 °F 57.2 °F 100% 29.91 in 0.2 mi SE 5.8 mph - N/A   Overcast
3:55 AM 57.2 °F 57.2 °F 100% 29.90 in 10.0 mi ESE 6.9 mph - N/A   Overcast
4:15 AM 57.2 °F 57.2 °F 100% 29.90 in 10.0 mi ESE 6.9 mph - N/A   Overcast
4:35 AM 57.2 °F 55.4 °F 94% 29.91 in 0.2 mi SE 5.8 mph - N/A   Overcast
4:55 AM 57.2 °F 57.2 °F 100% 29.90 in 0.8 mi SE 6.9 mph - N/A   Overcast
5:15 AM 57.2 °F 57.2 °F 100% 29.90 in 10.0 mi ESE 6.9 mph - N/A   Overcast
5:35 AM 57.2 °F 57.2 °F 100% 29.90 in 10.0 mi SE 5.8 mph - N/A   Overcast
5:55 AM 57.2 °F 57.2 °F 100% 29.91 in 1.5 mi SE 5.8 mph - N/A   Overcast
6:15 AM 57.2 °F 57.2 °F 100% 29.91 in 10.0 mi SE 5.8 mph - N/A   Overcast
6:35 AM 57.2 °F 57.2 °F 100% 29.91 in 9.0 mi SE 5.8 mph - N/A   Overcast
6:55 AM 57.2 °F 57.2 °F 100% 29.92 in 2.0 mi ESE 5.8 mph - 0.01 in   Overcast
7:15 AM 57.2 °F 57.2 °F 100% 29.92 in 0.2 mi SSE 5.8 mph - N/A   Overcast
7:35 AM 57.2 °F 55.4 °F 94% 29.93 in 10.0 mi South 5.8 mph - N/A   Mostly Cloudy
7:55 AM 57.2 °F 55.4 °F 94% 29.93 in 10.0 mi Calm Calm - N/A   Overcast
8:15 AM 57.2 °F 57.2 °F 100% 29.93 in 10.0 mi ESE 6.9 mph - N/A   Overcast
8:35 AM 59.0 °F 57.2 °F 94% 29.93 in 10.0 mi SE 8.1 mph - N/A   Mostly Cloudy
8:55 AM 59.0 °F 57.2 °F 94% 29.93 in 10.0 mi SE 5.8 mph - N/A   Partly Cloudy
9:15 AM 60.8 °F 57.2 °F 88% 29.94 in 10.0 mi SE 6.9 mph - N/A   Clear
9:35 AM 62.6 °F 57.2 °F 82% 29.94 in 10.0 mi SE 4.6 mph - N/A   Partly Cloudy
9:55 AM 62.6 °F 57.2 °F 82% 29.95 in 10.0 mi SE 4.6 mph - N/A   Scattered Clouds
10:15 AM 62.6 °F 57.2 °F 82% 29.95 in 10.0 mi SSE 5.8 mph - N/A   Partly Cloudy
10:35 AM 62.6 °F 55.4 °F 77% 29.95 in 10.0 mi Calm Calm - N/A   Scattered Clouds
10:55 AM 64.4 °F 55.4 °F 73% 29.95 in 10.0 mi Calm Calm - N/A   Mostly Cloudy
11:15 AM 64.4 °F 57.2 °F 77% 29.95 in 10.0 mi WSW 4.6 mph - N/A   Mostly Cloudy
11:35 AM 66.2 °F 55.4 °F 68% 29.95 in 10.0 mi West 8.1 mph - N/A   Mostly Cloudy
11:55 AM 66.2 °F 53.6 °F 64% 29.95 in 10.0 mi West 8.1 mph - N/A   Scattered Clouds
12:15 PM 66.2 °F 55.4 °F 68% 29.95 in 10.0 mi West 8.1 mph - N/A   Partly Cloudy
12:35 PM 66.2 °F 55.4 °F 68% 29.95 in 10.0 mi WNW 6.9 mph - N/A   Partly Cloudy
12:55 PM 68.0 °F 55.4 °F 64% 29.95 in 10.0 mi West 9.2 mph - N/A   Mostly Cloudy
1:15 PM 66.2 °F 55.4 °F 68% 29.95 in 10.0 mi WNW 11.5 mph - N/A   Overcast
1:35 PM 64.4 °F 55.4 °F 73% 29.95 in 10.0 mi West 8.1 mph - N/A   Mostly Cloudy
1:55 PM 69.8 °F 55.4 °F 60% 29.95 in 10.0 mi NW 13.8 mph - N/A   Scattered Clouds
2:15 PM 68.0 °F 55.4 °F 64% 29.95 in 10.0 mi WNW 13.8 mph 18.4 mph N/A   Mostly Cloudy
2:35 PM 68.0 °F 55.4 °F 64% 29.95 in 10.0 mi WNW 13.8 mph 18.4 mph N/A   Partly Cloudy
2:55 PM 66.2 °F 55.4 °F 68% 29.95 in 10.0 mi NW 13.8 mph 19.6 mph N/A   Partly Cloudy
3:15 PM 66.2 °F 55.4 °F 68% 29.95 in 10.0 mi NW 13.8 mph 18.4 mph N/A   Partly Cloudy
3:35 PM 64.4 °F 53.6 °F 68% 29.96 in 10.0 mi WNW 10.4 mph 19.6 mph N/A   Partly Cloudy
4:15 PM 68.0 °F 55.4 °F 64% 29.96 in 10.0 mi WNW 11.5 mph - N/A   Scattered Clouds
4:35 PM 68.0 °F 55.4 °F 64% 29.96 in 10.0 mi WNW 10.4 mph - N/A   Scattered Clouds
4:55 PM 66.2 °F 53.6 °F 64% 29.97 in 10.0 mi WNW 11.5 mph - N/A   Partly Cloudy
5:15 PM 66.2 °F 55.4 °F 68% 29.96 in 10.0 mi NW 12.7 mph - N/A   Clear
5:35 PM 64.4 °F 55.4 °F 73% 29.97 in 10.0 mi WNW 13.8 mph - N/A   Clear
5:55 PM 64.4 °F 55.4 °F 73% 29.97 in 10.0 mi WNW 11.5 mph - N/A   Clear
6:15 PM 64.4 °F 57.2 °F 77% 29.97 in 10.0 mi NW 12.7 mph - N/A   Scattered Clouds
6:35 PM 62.6 °F 57.2 °F 82% 29.98 in 10.0 mi NW 9.2 mph - N/A   Mostly Cloudy
6:55 PM 59.0 °F 57.2 °F 94% 29.98 in 10.0 mi NNW 5.8 mph - N/A   Scattered Clouds
7:15 PM 59.0 °F 57.2 °F 94% 29.98 in 10.0 mi WNW 3.5 mph - N/A   Mostly Cloudy
7:35 PM 59.0 °F 57.2 °F 94% 29.98 in 10.0 mi WNW 4.6 mph - N/A   Overcast
7:55 PM 59.0 °F 57.2 °F 94% 29.98 in 5.0 mi North 3.5 mph - N/A   Overcast
8:15 PM 59.0 °F 57.2 °F 94% 29.98 in 10.0 mi NW 4.6 mph - N/A   Mostly Cloudy
8:35 PM 59.0 °F 57.2 °F 94% 29.98 in 8.0 mi North 3.5 mph - N/A   Mostly Cloudy
8:55 PM 59.0 °F 57.2 °F 94% 29.99 in 10.0 mi Calm Calm - 0.01 in   Mostly Cloudy
9:15 PM 59.0 °F 57.2 °F 94% 29.99 in 10.0 mi Calm Calm - N/A   Mostly Cloudy
9:35 PM 59.0 °F 57.2 °F 94% 29.99 in 10.0 mi Calm Calm - N/A   Mostly Cloudy
9:55 PM 59.0 °F 57.2 °F 94% 30.00 in 10.0 mi Calm Calm - N/A   Overcast
10:15 PM 59.0 °F 57.2 °F 94% 30.00 in 10.0 mi Calm Calm - N/A   Overcast
10:35 PM 57.2 °F 57.2 °F 100% 30.00 in 10.0 mi Calm Calm - N/A   Overcast
10:55 PM 57.2 °F 57.2 °F 100% 30.00 in 1.2 mi Calm Calm - N/A   Overcast
11:15 PM 57.2 °F 57.2 °F 100% 30.01 in 9.0 mi Calm Calm - N/A   Overcast
11:35 PM 57.2 °F 57.2 °F 100% 30.01 in 8.0 mi Calm Calm - N/A   Overcast
11:55 PM 57.2 °F 57.2 °F 100% 30.01 in 4.0 mi Calm Calm - N/A   Overcast